EW7341 Weather Reports


time (UTC)temp
F
wind
direction
speed
knots
gust
knots
rain 1hr
in
rain 24hr
in
rain mn
in
humidity
%
barometer
mb
20260506103102 50 359 0.0 7.8 0.00 0.00 0.00 74 1011.4
20260506101506 50 25 1.7 7.8 0.00 0.00 0.00 75 1011.0
20260506100016 50 82 0.9 8.7 0.00 0.00 0.00 77 1010.8
20260506094522 50 63 0.9 5.2 0.00 0.00 0.00 79 1010.7
20260506093106 50 122 1.7 9.6 0.00 0.00 0.00 80 1010.6
20260506091517 50 265 0.0 6.1 0.00 0.00 0.00 80 1010.7
20260506090023 50 47 1.7 7.8 0.00 0.00 0.00 81 1010.8
20260506084522 51 56 1.7 4.3 0.00 0.00 0.00 81 1010.7
20260506083107 51 34 0.0 4.3 0.00 0.00 0.00 81 1010.3
20260506081518 51 90 1.7 5.2 0.00 0.00 0.00 80 1010.0
20260506073120 51 15 1.7 9.6 0.00 0.00 0.00 79 1009.4
20260506071519 51 68 2.6 8.7 0.00 0.00 0.00 78 1009.7
20260506061506 51 96 2.6 6.1 0.00 0.00 0.00 79 1008.9
20260506044505 51 65 2.6 5.2 0.00 0.00 0.00 78 1008.6
20260506043113 52 70 1.7 5.2 0.00 0.00 0.00 77 1008.6
20260506041517 52 4 1.7 6.1 0.00 0.00 0.00 76 1008.5
20260506040032 52 100 3.5 10.4 0.00 0.00 0.00 75 1008.2
20260506034518 53 23 1.7 9.6 0.00 0.00 0.00 75 1008.1
20260506033006 53 59 2.6 6.1 0.00 0.00 0.00 74 1007.9
20260506031509 54 71 3.5 8.7 0.00 0.00 0.00 73 1008.1
20260506030015 54 59 2.6 10.4 0.00 0.00 0.00 74 1008.0
20260506024523 55 84 1.7 8.7 0.00 0.00 0.00 73 1007.6
20260506023106 55 32 1.7 7.8 0.00 0.00 0.00 73 1007.3
20260506021511 55 76 1.7 6.1 0.00 0.00 0.00 73 1007.3
20260506020020 55 54 0.9 7.8 0.00 0.00 0.00 73 1006.8
20260506014506 55 1 3.5 7.0 0.00 0.00 0.00 73 1006.4
20260506013106 55 96 0.9 7.8 0.00 0.00 0.00 73 1006.2
20260506011535 56 56 0.9 7.8 0.00 0.00 0.00 74 1005.7
20260506010020 56 4 2.6 7.0 0.00 0.00 0.00 75 1005.2
20260506004516 56 65 1.7 7.8 0.00 0.00 0.00 74 1005.2
20260506003102 57 65 2.6 7.0 0.00 0.00 0.00 74 1005.1
20260506001510 57 8 0.9 7.8 0.00 0.00 0.00 73 1005.0
20260506000022 58 26 1.7 9.6 0.00 0.00 0.00 72 1004.6
20260505234521 59 99 1.7 7.0 0.00 0.00 0.00 72 1004.7
20260505233104 60 55 2.6 7.8 0.00 0.00 0.00 71 1004.8
20260505231508 61 53 2.6 6.1 0.00 0.00 0.00 69 1004.6
20260505230021 63 55 1.7 8.7 0.00 0.00 0.00 68 1004.8
20260505224520 64 70 2.6 8.7 0.00 0.00 0.00 65 1004.4
20260505223102 66 53 1.7 8.7 0.00 0.00 0.00 64 1004.3
20260505221509 67 86 2.6 7.0 0.00 0.00 0.00 63 1003.8
20260505220042 67 6 2.6 9.6 0.00 0.00 0.00 63 1003.9
20260505214509 69 327 1.7 7.0 0.00 0.00 0.00 62 1004.2
20260505213109 69 319 1.7 6.1 0.00 0.00 0.00 60 1003.9
20260505211518 69 36 2.6 6.1 0.00 0.00 0.00 60 1003.8
20260505210010 69 313 2.6 8.7 0.00 0.00 0.00 59 1003.6
20260505204511 70 58 0.9 5.2 0.00 0.00 0.00 59 1003.7
20260505203114 70 293 1.7 7.0 0.00 0.00 0.00 60 1003.5
20260505201503 70 330 2.6 7.0 0.00 0.00 0.00 59 1003.4
20260505200011 70 55 1.7 7.8 0.00 0.00 0.00 59 1003.3
20260505194522 70 328 0.9 7.0 0.00 0.00 0.00 62 1003.2
20260505193103 70 356 1.7 8.7 0.00 0.00 0.00 60 1003.3
20260505191514 70 320 4.3 7.0 0.00 0.00 0.00 60 1003.4
20260505190016 71 303 3.5 7.0 0.00 0.00 0.00 60 1003.2
20260505184526 70 321 2.6 7.8 0.00 0.00 0.00 61 1003.3
20260505183007 72 314 5.2 9.6 0.00 0.00 0.00 59 1003.0
20260505181514 72 336 4.3 8.7 0.00 0.00 0.00 59 1002.4
20260505180024 72 308 5.2 10.4 0.00 0.00 0.00 60 1002.4
20260505174508 72 304 5.2 8.7 0.00 0.00 0.00 61 1002.4
20260505173104 72 322 5.2 10.4 0.00 0.00 0.00 62 1002.0
20260505171514 72 311 4.3 8.7 0.00 0.00 0.00 64 1001.8
20260505170022 72 321 5.2 9.6 0.00 0.00 0.00 65 1001.7
20260505164505 73 322 4.3 10.4 0.00 0.00 0.00 62 1001.1
20260505163110 75 355 4.3 7.8 0.00 0.00 0.00 63 1000.7
20260505161515 76 289 2.6 6.1 0.00 0.00 0.00 62 1000.8
20260505153124 77 348 4.3 8.7 0.00 0.00 0.00 35 999.7
20260505151519 78 314 3.5 13.0 0.00 0.00 0.00 39 999.2
20260505124503 68 218 3.5 7.8 0.00 0.00 0.00 81 997.5
20260505123109 68 198 5.2 9.6 0.00 0.00 0.00 81 997.4
20260505121515 68 252 3.5 9.6 0.00 0.00 0.00 80 997.4
20260505120021 68 192 5.2 10.4 0.00 0.00 0.00 80 997.3
20260505114621 69 189 7.0 13.0 0.00 0.00 0.00 80 997.0
20260505113116 69 176 7.0 11.3 0.00 0.00 0.00 79 997.0
20260505111523 69 192 6.1 12.2 0.00 0.00 0.00 79 997.0